Bans from mc.auscraft.org

Ban ID Player Name Banned By Ban Reason Date Issued Reputation
Global 5562629 nexperisone ultima84 griefing and theft, logblock confirmed 2016-09-19 10:27:08 7.33 / 10
Global 5562613 sprowt ultima84 griefing, logblock confirmed 2016-09-19 08:28:44 7.33 / 10
Local 5562526 frostyclockwork console excessive profanity [ENDS 2016-09-18 13:17:52] 2016-09-18 13:07:52 10 / 10
Global 5561160 luckyluukey ultima84 griefing, logblock confirmed 2016-09-02 14:53:26 7.33 / 10
Global 5561158 pizzahutguy ultima84 griefing, logblock confirmed 2016-09-02 14:50:58 7.33 / 10
Global 5561027 belshuruka ultima84 griefing, logblock confirmed 2016-08-31 08:59:57 7.33 / 10
Local 5560007 lox288 ultima84 griefing, logblock confirmed 2016-08-22 12:56:34 10 / 10
Local 5560005 m0nster2020 ultima84 griefing, logblock confirmed 2016-08-22 12:54:55 10 / 10
Global 5559842 juanguppy ultima84 xraying, logblock confirmed 2016-08-21 06:32:13 7.33 / 10
Local 5558878 drewbzz ultima84 rude/offensive/attempted to DoS server 2016-08-15 14:55:30 9.64 / 10
Global 5557731 strom_surge ultima84 griefing, logblock confirmed 2016-08-07 10:06:42 7.33 / 10
Local 5557648 honnydew12321 ultima84 griefing, logblock confirmed 2016-08-06 12:06:32 10 / 10
Global 5556949 jtb7101 ultima84 theft and griefing, logblock confirmed 2016-08-01 08:10:09 7.33 / 10
Global 5555992 zombiehunter2121 ultima84 griefing, logblock confirmed 2016-07-25 07:56:54 7.33 / 10
Global 5555988 steven09678 console Griefing, Logblock confirmed 2016-07-25 06:35:03 7.33 / 10
Local 5555987 sittingwheat69 console offensive 2016-07-25 06:34:29 10 / 10
Local 5555986 steven09678 console excessive profanity [ENDS 2016-07-25 06:41:03] 2016-07-25 06:31:03 7.33 / 10
Global 5555880 goobo69 ultima84 griefing, logblock confirmed 2016-07-24 15:05:53 7.33 / 10
Global 5555879 iamninelives ultima84 griefing, logblock confirmed 2016-07-24 15:04:58 7.33 / 10
Global 5555860 acez43 ultima84 griefing and xray, logblock confirmed 2016-07-24 11:19:14 7.33 / 10
Global 5555259 macnefic89 somevixen griefing, logblock confirmed 2016-07-20 07:38:00 7.33 / 10
Local 5555124 the_only_captain ultima84 abusing a duplication glitch [ENDS 2016-08-09 11:09:54] 2016-07-19 11:09:54 10 / 10
Global 5555020 hdog174 ultima84 xraying, logblock confirmed 2016-07-18 11:15:35 4.05 / 10
Global 5555016 shadowspirit2 ultima84 xraying, logblock confirmed 2016-07-18 10:54:38 7.33 / 10
Local 5554941 xoggax console alt of chabana (griefing) 2016-07-17 22:47:09 10 / 10
Ban ID Player Name Banned By Ban Reason Date Issued Reputation
Showing 101 to 125 of 1653 entries